Hourly Data Report for October 05, 2017

All times are specified in Local Standard Time (LST). Add 1 hour to adjust for Daylight Saving Time where and when it is observed.

CAPE DORSET A
NUNAVUT

64°13'49.000" N
76°31'30.000" W
48.20 m
2400637
71366
YTE

Download Data

Hourly Data (October 2017)
Hourly Data Report for October 5, 2017
Temp Definition
°C
Dew Point Temp Definition
°C
Rel Hum Definition
%
Wind Dir Definition
10's deg

Wind Spd Definition
km/h
Visibility Definition
km
Stn Press Definition
kPa
Hmdx Definition


Wind Chill Definition


Weather Definition


TIME
00:00 Legend Double Dagger -2.0 -4.4 84 22 18 16.1 98.39   -7 LegendNANA
01:00 Legend Double Dagger -1.9 -5.7 75 20 22 16.1 98.36   -8 Snow
02:00 Legend Double Dagger -1.5 -6.2 71 20 26 16.1 98.36   -8 LegendNANA
03:00 Legend Double Dagger -1.4 -6.0 71 20 30 16.1 98.33   -8 Snow
04:00 Legend Double Dagger -1.5 -6.0 72 21 26 16.1 98.33   -8 LegendNANA
05:00 Legend Double Dagger -1.5 -5.2 76 17 22 16.1 98.33   -7 LegendNANA
06:00 Legend Double Dagger -1.5 -3.5 86 18 30 8.1 98.32   -8 Snow
07:00 Legend Double Dagger -1.0 -3.7 82 17 26 16.1 98.32   -7 LegendNANA
08:00 Legend Double Dagger -0.9 -3.5 83 16 28 16.1 98.32   -7 Snow
09:00 Legend Double Dagger -0.9 -2.6 88 17 24 9.7 98.32   -7 Snow
10:00 Legend Double Dagger -0.9 -2.2 91 16 22 14.5 98.29   -7 Snow
11:00 Legend Double Dagger -0.7 -2.0 91 16 30 16.1 98.28   -7 Snow
12:00 Legend Double Dagger -0.6 -2.2 89 16 26 16.1 98.27   -7 LegendNANA
13:00 Legend Double Dagger -0.4 -2.2 88 16 28 16.1 98.25   -7 Snow
14:00 Legend Double Dagger -0.4 -1.6 92 15 24 16.1 98.27   -6 LegendNANA
15:00 Legend Double Dagger -0.3 -1.4 92 15 21 16.1 98.31   -6 Snow
16:00 Legend Double Dagger -0.1 -1.4 91 15 22 16.1 98.32   -6 LegendNANA
17:00 Legend Double Dagger -0.4 -2.2 88 14 15 16.1 98.33   -5 LegendNANA
18:00 Legend Double Dagger -0.2 -1.3 92 13 24 16.1 98.32   -6 LegendNANA
19:00 Legend Double Dagger -0.3 -1.9 89 13 17 16.1 98.35   -5 LegendNANA
20:00 Legend Double Dagger -0.2 -1.1 94 13 18 16.1 98.35   -5 LegendNANA
21:00 Legend Double Dagger -0.2 -1.3 92 13 15 16.1 98.35   -5 LegendNANA
22:00 Legend Double Dagger -0.1 -0.8 95 13 21 16.1 98.33   -6 LegendNANA
23:00 Legend Double Dagger -0.2 -0.6 97 12 17 16.1 98.31   -5 LegendNANA

Notes on Data Quality.

Legend

  • E = Estimated
  • M = Missing
  • NA = Not Available
  • ‡ = Partner data that is not subject to review by the National Climate Archives
Date modified: